Voltar ao catálogo

COSMOS 2251 DEB

AtivoLEO
NORAD 34031·DEBRIS·🇷🇺 Russia

Lançado Jun 16, 1993 de Plesetsk Cosmodrome

Loading…

Próximas Passagens (próximas 24 horas)

TLE

AtualizadoSource: Space-Track

Época: Sep 14, 2026, 11:53 UTC

1 34031U 93036HS  26257.49554294  .00002443  00000-0  49106-3 0  9992
2 34031  74.0133 327.8564 0022706  13.8287 358.5365 14.62025554925939

Acompanhe COSMOS 2251 DEB em tempo real com AllMySat

Download on the App Store